Time,TemperatureF,DewpointF,PressureIn,WindDirection,WindDirectionDegrees,WindSpeedMPH,WindSpeedGustMPH,Humidity,HourlyPrecipIn,Conditions,Clouds,dailyrainin,SoftwareType,DateUTC
2013-01-13 00:00:00,63.2,61.5,29.77,SSE,168,2.0,6.0,94,0.00,,BKN055,0.03,VWS V14.00,2013-01-13 05:00:00,
2013-01-13 00:10:00,63.9,61.5,29.76,South,180,1.0,6.0,92,0.00,,BKN055,0.00,VWS V14.00,2013-01-13 05:10:00,
2013-01-13 00:12:00,63.9,61.5,29.76,South,180,1.0,6.0,92,0.00,,BKN055,0.00,VWS V14.00,2013-01-13 05:12:00,
2013-01-13 00:20:00,65.0,62.3,29.75,SSE,161,3.0,9.0,91,0.00,,BKN055,0.00,VWS V14.00,2013-01-13 05:20:00,
2013-01-13 00:22:00,65.0,62.3,29.75,SSE,161,3.0,9.0,91,0.00,,BKN055,0.00,VWS V14.00,2013-01-13 05:22:00,
2013-01-13 00:30:00,65.5,61.9,29.74,SSW,196,6.0,10.0,88,0.00,,BKN055,0.00,VWS V14.00,2013-01-13 05:30:00,
2013-01-13 00:32:00,65.5,61.9,29.74,SSW,196,6.0,10.0,88,0.00,,BKN055,0.00,VWS V14.00,2013-01-13 05:32:00,
2013-01-13 00:40:00,65.7,61.7,29.74,SSE,155,4.0,10.0,87,0.00,,BKN055,0.00,VWS V14.00,2013-01-13 05:40:00,
2013-01-13 00:42:00,65.7,61.7,29.74,SSE,155,4.0,10.0,87,0.00,,BKN055,0.00,VWS V14.00,2013-01-13 05:42:00,
2013-01-13 00:50:00,65.6,61.3,29.74,SSE,155,0.0,7.0,86,0.00,,BKN055,0.00,VWS V14.00,2013-01-13 05:50:00,
2013-01-13 00:52:00,65.6,61.3,29.74,SSE,155,0.0,7.0,86,0.00,,BKN055,0.00,VWS V14.00,2013-01-13 05:52:00,
2013-01-13 01:00:00,65.3,61.3,29.73,SSE,161,0.0,7.0,87,0.00,,BKN055,0.00,VWS V14.00,2013-01-13 06:00:00,
2013-01-13 01:02:00,65.3,61.3,29.73,SSE,161,0.0,7.0,87,0.00,,BKN055,0.00,VWS V14.00,2013-01-13 06:02:00,
2013-01-13 01:10:00,65.6,61.0,29.73,South,175,4.0,9.0,85,0.00,,BKN055,0.00,VWS V14.00,2013-01-13 06:10:00,
2013-01-13 01:12:00,65.6,61.0,29.73,South,175,4.0,9.0,85,0.00,,BKN055,0.00,VWS V14.00,2013-01-13 06:12:00,
2013-01-13 01:20:00,66.2,61.6,29.72,SSE,167,5.0,11.0,85,0.00,,BKN055,0.00,VWS V14.00,2013-01-13 06:20:00,
2013-01-13 01:22:00,66.2,61.6,29.72,SSE,167,5.0,11.0,85,0.00,,BKN055,0.00,VWS V14.00,2013-01-13 06:22:00,
2013-01-13 01:30:00,66.0,61.0,29.72,South,178,0.0,15.0,84,0.00,,BKN055,0.00,VWS V14.00,2013-01-13 06:30:00,
2013-01-13 01:32:00,66.0,61.0,29.72,South,178,0.0,15.0,84,0.00,,BKN055,0.00,VWS V14.00,2013-01-13 06:32:00,
2013-01-13 01:40:00,66.1,61.5,29.72,SSW,196,3.0,11.0,85,0.00,,BKN055,0.00,VWS V14.00,2013-01-13 06:40:00,
2013-01-13 01:42:00,66.1,61.5,29.72,SSW,196,3.0,11.0,85,0.00,,BKN055,0.00,VWS V14.00,2013-01-13 06:42:00,
2013-01-13 01:50:00,66.1,61.1,29.72,South,173,0.0,11.0,84,0.00,,BKN055,0.00,VWS V14.00,2013-01-13 06:50:00,
2013-01-13 01:52:00,66.1,61.1,29.72,South,173,0.0,11.0,84,0.00,,BKN055,0.00,VWS V14.00,2013-01-13 06:52:00,
2013-01-13 02:00:00,66.1,61.1,29.73,South,188,2.0,13.0,84,0.00,,BKN055,0.00,VWS V14.00,2013-01-13 07:00:00,
2013-01-13 02:02:00,66.1,61.1,29.73,South,188,2.0,13.0,84,0.00,,BKN055,0.00,VWS V14.00,2013-01-13 07:02:00,
2013-01-13 02:10:00,65.9,60.9,29.72,South,173,1.0,10.0,84,0.00,,BKN055,0.00,VWS V14.00,2013-01-13 07:10:00,
2013-01-13 02:12:00,65.9,60.9,29.72,South,173,1.0,10.0,84,0.00,,BKN055,0.00,VWS V14.00,2013-01-13 07:12:00,
2013-01-13 02:20:00,66.1,60.8,29.72,SSW,196,5.0,12.0,83,0.00,,BKN055,0.00,VWS V14.00,2013-01-13 07:20:00,
2013-01-13 02:22:00,66.1,60.8,29.72,SSW,196,5.0,12.0,83,0.00,,BKN055,0.00,VWS V14.00,2013-01-13 07:22:00,
2013-01-13 02:30:00,65.6,60.6,29.73,SSW,210,4.0,11.0,84,0.00,,BKN055,0.00,VWS V14.00,2013-01-13 07:30:00,
2013-01-13 02:32:00,65.6,60.6,29.73,SSW,210,4.0,11.0,84,0.00,,BKN055,0.00,VWS V14.00,2013-01-13 07:32:00,
2013-01-13 02:40:00,65.8,60.8,29.72,SSW,209,4.0,14.0,84,0.01,,BKN055,0.01,VWS V14.00,2013-01-13 07:40:00,
2013-01-13 02:42:00,65.8,60.8,29.72,SSW,209,4.0,14.0,84,0.01,,BKN055,0.01,VWS V14.00,2013-01-13 07:42:00,
2013-01-13 02:50:00,65.0,61.0,29.72,South,188,4.0,10.0,87,0.02,,BKN055,0.02,VWS V14.00,2013-01-13 07:50:00,
2013-01-13 02:52:00,65.0,61.0,29.72,South,188,4.0,10.0,87,0.02,,BKN055,0.02,VWS V14.00,2013-01-13 07:52:00,
2013-01-13 03:00:00,64.5,60.9,29.72,SSE,164,4.0,10.0,88,0.02,,BKN055,0.02,VWS V14.00,2013-01-13 08:00:00,
2013-01-13 03:02:00,64.5,60.9,29.72,SSE,164,4.0,10.0,88,0.02,,BKN055,0.02,VWS V14.00,2013-01-13 08:02:00,
2013-01-13 03:10:00,64.3,61.6,29.79,SW,217,6.0,20.0,91,0.05,,BKN055,0.05,VWS V14.00,2013-01-13 08:10:00,
2013-01-13 03:12:00,64.3,61.6,29.79,SW,217,6.0,20.0,91,0.05,,BKN055,0.05,VWS V14.00,2013-01-13 08:12:00,
2013-01-13 03:20:00,62.1,59.1,29.80,SW,225,2.0,17.0,90,0.10,,BKN055,0.10,VWS V14.00,2013-01-13 08:20:00,
2013-01-13 03:22:00,62.1,59.1,29.80,SW,225,2.0,17.0,90,0.10,,BKN055,0.10,VWS V14.00,2013-01-13 08:22:00,
2013-01-13 03:30:00,59.0,57.0,29.80,SSW,206,4.0,9.0,93,0.13,,BKN055,0.13,VWS V14.00,2013-01-13 08:30:00,
2013-01-13 03:32:00,59.0,57.0,29.80,SSW,206,4.0,9.0,93,0.13,,BKN055,0.13,VWS V14.00,2013-01-13 08:32:00,
2013-01-13 03:40:00,57.8,56.1,29.81,SSW,213,0.0,5.0,94,0.15,,BKN055,0.15,VWS V14.00,2013-01-13 08:40:00,
2013-01-13 03:42:00,57.8,56.1,29.81,SSW,213,0.0,5.0,94,0.15,,BKN055,0.15,VWS V14.00,2013-01-13 08:42:00,
2013-01-13 03:50:00,58.3,57.5,29.81,WSW,249,2.0,6.0,97,0.15,,BKN055,0.16,VWS V14.00,2013-01-13 08:50:00,
2013-01-13 03:52:00,58.3,57.5,29.81,WSW,249,2.0,6.0,97,0.15,,BKN055,0.16,VWS V14.00,2013-01-13 08:52:00,
2013-01-13 04:00:00,58.7,57.8,29.81,SW,234,0.0,4.0,97,0.17,,BKN055,0.19,VWS V14.00,2013-01-13 09:00:00,
2013-01-13 04:02:00,58.7,57.8,29.81,SW,234,0.0,4.0,97,0.17,,BKN055,0.19,VWS V14.00,2013-01-13 09:02:00,
2013-01-13 04:10:00,58.8,58.2,29.82,SSW,196,1.0,5.0,98,0.20,,BKN055,0.22,VWS V14.00,2013-01-13 09:10:00,
2013-01-13 04:12:00,58.8,58.2,29.82,SSW,196,1.0,5.0,98,0.20,,BKN055,0.22,VWS V14.00,2013-01-13 09:12:00,
2013-01-13 04:20:00,58.1,57.3,29.82,WSW,248,0.0,3.0,97,0.21,,BKN055,0.26,VWS V14.00,2013-01-13 09:20:00,
2013-01-13 04:22:00,58.1,57.3,29.82,WSW,248,0.0,3.0,97,0.21,,BKN055,0.26,VWS V14.00,2013-01-13 09:22:00,
2013-01-13 04:30:00,57.6,56.8,29.80,WSW,239,0.0,0.0,97,0.20,,BKN055,0.30,VWS V14.00,2013-01-13 09:30:00,
2013-01-13 04:32:00,57.6,56.8,29.80,WSW,239,0.0,0.0,97,0.20,,BKN055,0.30,VWS V14.00,2013-01-13 09:32:00,
2013-01-13 04:40:00,57.9,57.3,29.81,WSW,240,0.0,3.0,98,0.20,,BKN055,0.33,VWS V14.00,2013-01-13 09:40:00,
2013-01-13 04:42:00,57.9,57.3,29.81,WSW,240,0.0,3.0,98,0.20,,BKN055,0.33,VWS V14.00,2013-01-13 09:42:00,
2013-01-13 04:50:00,57.7,57.1,29.80,WSW,240,0.0,1.0,98,0.19,,BKN055,0.34,VWS V14.00,2013-01-13 09:50:00,
2013-01-13 04:52:00,57.7,57.1,29.80,WSW,240,0.0,1.0,98,0.19,,BKN055,0.34,VWS V14.00,2013-01-13 09:52:00,
2013-01-13 05:00:00,57.5,56.9,29.81,SW,222,0.0,6.0,98,0.19,,BKN055,0.35,VWS V14.00,2013-01-13 10:00:00,
2013-01-13 05:02:00,57.5,56.9,29.81,SW,222,0.0,6.0,98,0.19,,BKN055,0.35,VWS V14.00,2013-01-13 10:02:00,
2013-01-13 05:10:00,58.0,57.7,29.81,SW,215,0.0,5.0,99,0.18,,BKN055,0.37,VWS V14.00,2013-01-13 10:10:00,
2013-01-13 05:12:00,58.0,57.7,29.81,SW,215,0.0,5.0,99,0.18,,BKN055,0.37,VWS V14.00,2013-01-13 10:12:00,
2013-01-13 05:20:00,56.0,55.2,29.82,SW,218,0.0,3.0,97,0.18,,BKN055,0.40,VWS V14.00,2013-01-13 10:20:00,
2013-01-13 05:22:00,56.0,55.2,29.82,SW,218,0.0,3.0,97,0.18,,BKN055,0.40,VWS V14.00,2013-01-13 10:22:00,
2013-01-13 05:30:00,56.1,55.5,29.81,SW,228,0.0,2.0,98,0.16,,BKN055,0.42,VWS V14.00,2013-01-13 10:30:00,
2013-01-13 05:32:00,56.1,55.5,29.81,SW,228,0.0,2.0,98,0.16,,BKN055,0.42,VWS V14.00,2013-01-13 10:32:00,
2013-01-13 05:40:00,57.9,57.6,29.82,WSW,245,4.0,4.0,99,0.16,,BKN055,0.46,VWS V14.00,2013-01-13 10:40:00,
2013-01-13 05:42:00,57.9,57.6,29.82,WSW,245,4.0,4.0,99,0.16,,BKN055,0.46,VWS V14.00,2013-01-13 10:42:00,
2013-01-13 05:50:00,56.2,55.7,29.83,SW,234,0.0,4.0,98,0.15,,BKN055,0.48,VWS V14.00,2013-01-13 10:50:00,
2013-01-13 05:52:00,56.2,55.7,29.83,SW,234,0.0,4.0,98,0.15,,BKN055,0.48,VWS V14.00,2013-01-13 10:52:00,
2013-01-13 06:00:00,56.1,55.8,29.84,WSW,238,0.0,3.0,99,0.16,,BKN055,0.50,VWS V14.00,2013-01-13 11:00:00,
2013-01-13 06:02:00,56.1,55.8,29.84,WSW,238,0.0,3.0,99,0.16,,BKN055,0.50,VWS V14.00,2013-01-13 11:02:00,
2013-01-13 06:10:00,57.0,56.7,29.84,SW,232,0.0,4.0,99,0.16,,BKN055,0.51,VWS V14.00,2013-01-13 11:10:00,
2013-01-13 06:12:00,57.0,56.7,29.84,SW,232,0.0,4.0,99,0.16,,BKN055,0.51,VWS V14.00,2013-01-13 11:12:00,
2013-01-13 06:20:00,57.2,56.9,29.84,SW,219,0.0,4.0,99,0.15,,BKN055,0.52,VWS V14.00,2013-01-13 11:20:00,
2013-01-13 06:22:00,57.2,56.9,29.84,SW,219,0.0,4.0,99,0.15,,BKN055,0.52,VWS V14.00,2013-01-13 11:22:00,
2013-01-13 06:30:00,57.8,57.5,29.84,SW,223,0.0,2.0,99,0.13,,BKN055,0.53,VWS V14.00,2013-01-13 11:30:00,
2013-01-13 06:32:00,57.8,57.5,29.84,SW,223,0.0,2.0,99,0.13,,BKN055,0.53,VWS V14.00,2013-01-13 11:32:00,
2013-01-13 06:40:00,57.1,56.8,29.84,SW,224,0.0,0.0,99,0.11,,BKN055,0.53,VWS V14.00,2013-01-13 11:40:00,
2013-01-13 06:42:00,57.1,56.8,29.84,SW,224,0.0,0.0,99,0.11,,BKN055,0.53,VWS V14.00,2013-01-13 11:42:00,
2013-01-13 06:50:00,57.4,57.1,29.86,SW,223,0.0,0.0,99,0.07,,BKN055,0.53,VWS V14.00,2013-01-13 11:50:00,
2013-01-13 06:52:00,57.4,57.1,29.86,SW,223,0.0,0.0,99,0.07,,BKN055,0.53,VWS V14.00,2013-01-13 11:52:00,
2013-01-13 07:00:00,57.2,56.9,29.88,SW,224,0.0,0.0,99,0.05,,BKN055,0.53,VWS V14.00,2013-01-13 12:00:00,
2013-01-13 07:02:00,57.2,56.9,29.88,SW,224,0.0,0.0,99,0.05,,BKN055,0.53,VWS V14.00,2013-01-13 12:02:00,
2013-01-13 07:10:00,57.1,56.8,29.88,SW,223,0.0,0.0,99,0.04,,BKN055,0.54,VWS V14.00,2013-01-13 12:10:00,
2013-01-13 07:12:00,57.1,56.8,29.88,SW,223,0.0,0.0,99,0.04,,BKN055,0.54,VWS V14.00,2013-01-13 12:12:00,
2013-01-13 07:20:00,57.1,56.8,29.87,SW,224,0.0,0.0,99,0.05,,BKN055,0.56,VWS V14.00,2013-01-13 12:20:00,
2013-01-13 07:22:00,57.1,56.8,29.87,SW,224,0.0,0.0,99,0.05,,BKN055,0.56,VWS V14.00,2013-01-13 12:22:00,
2013-01-13 07:30:00,57.1,56.8,29.88,SW,223,0.0,0.0,99,0.05,,BKN055,0.57,VWS V14.00,2013-01-13 12:30:00,
2013-01-13 07:32:00,57.1,56.8,29.88,SW,223,0.0,0.0,99,0.05,,BKN055,0.57,VWS V14.00,2013-01-13 12:32:00,
2013-01-13 07:40:00,56.4,56.1,29.88,SW,224,0.0,0.0,99,0.05,,BKN055,0.58,VWS V14.00,2013-01-13 12:40:00,
2013-01-13 07:42:00,56.4,56.1,29.88,SW,224,0.0,0.0,99,0.05,,BKN055,0.58,VWS V14.00,2013-01-13 12:42:00,
2013-01-13 07:50:00,56.6,56.3,29.89,SW,226,2.0,3.0,99,0.05,,BKN055,0.58,VWS V14.00,2013-01-13 12:50:00,
2013-01-13 07:52:00,56.6,56.3,29.89,SW,226,2.0,3.0,99,0.05,,BKN055,0.58,VWS V14.00,2013-01-13 12:52:00,
2013-01-13 08:00:00,57.1,57.1,29.89,SW,227,0.0,2.0,100,0.06,,BKN055,0.59,VWS V14.00,2013-01-13 13:00:00,
2013-01-13 08:02:00,57.1,57.1,29.89,SW,227,0.0,2.0,100,0.06,,BKN055,0.59,VWS V14.00,2013-01-13 13:02:00,
2013-01-13 08:10:00,58.0,58.0,29.90,WSW,244,0.0,3.0,100,0.08,,BKN055,0.61,VWS V14.00,2013-01-13 13:10:00,
2013-01-13 08:12:00,58.0,58.0,29.90,WSW,244,0.0,3.0,100,0.08,,BKN055,0.61,VWS V14.00,2013-01-13 13:12:00,
2013-01-13 08:20:00,58.1,58.1,29.90,South,184,0.0,3.0,100,0.07,,BKN055,0.61,VWS V14.00,2013-01-13 13:20:00,
2013-01-13 08:22:00,58.1,58.1,29.90,South,184,0.0,3.0,100,0.07,,BKN055,0.61,VWS V14.00,2013-01-13 13:22:00,
2013-01-13 08:30:00,57.6,57.6,29.90,South,184,0.0,0.0,100,0.06,,BKN055,0.62,VWS V14.00,2013-01-13 13:30:00,
2013-01-13 08:32:00,57.6,57.6,29.90,South,184,0.0,0.0,100,0.06,,BKN055,0.62,VWS V14.00,2013-01-13 13:32:00,
2013-01-13 08:40:00,57.4,57.1,29.89,South,184,0.0,0.0,99,0.06,,BKN055,0.63,VWS V14.00,2013-01-13 13:40:00,
2013-01-13 08:42:00,57.4,57.1,29.89,South,184,0.0,0.0,99,0.06,,BKN055,0.63,VWS V14.00,2013-01-13 13:42:00,
2013-01-13 08:50:00,57.6,57.6,29.87,SSW,211,0.0,2.0,100,0.06,,BKN055,0.64,VWS V14.00,2013-01-13 13:50:00,
2013-01-13 08:52:00,57.6,57.6,29.87,SSW,211,0.0,2.0,100,0.06,,BKN055,0.64,VWS V14.00,2013-01-13 13:52:00,
2013-01-13 09:00:00,57.6,57.6,29.85,East,94,0.0,1.0,100,0.06,,BKN055,0.64,VWS V14.00,2013-01-13 14:00:00,
2013-01-13 09:02:00,57.6,57.6,29.85,East,94,0.0,1.0,100,0.06,,BKN055,0.64,VWS V14.00,2013-01-13 14:02:00,
2013-01-13 09:10:00,57.7,57.7,29.85,SE,139,0.0,3.0,100,0.05,,BKN055,0.64,VWS V14.00,2013-01-13 14:10:00,
2013-01-13 09:12:00,57.7,57.7,29.85,SE,139,0.0,3.0,100,0.05,,BKN055,0.64,VWS V14.00,2013-01-13 14:12:00,
2013-01-13 09:20:00,57.5,57.2,29.85,SW,232,2.0,4.0,99,0.04,,BKN055,0.65,VWS V14.00,2013-01-13 14:20:00,
2013-01-13 09:22:00,57.5,57.2,29.85,SW,232,2.0,4.0,99,0.04,,BKN055,0.65,VWS V14.00,2013-01-13 14:22:00,
2013-01-13 09:30:00,57.8,57.8,29.87,SW,218,1.0,7.0,100,0.04,,BKN055,0.65,VWS V14.00,2013-01-13 14:30:00,
2013-01-13 09:32:00,57.8,57.8,29.87,SW,218,1.0,7.0,100,0.04,,BKN055,0.65,VWS V14.00,2013-01-13 14:32:00,
2013-01-13 09:40:00,58.1,58.1,29.87,SSW,205,0.0,5.0,100,0.03,,BKN055,0.65,VWS V14.00,2013-01-13 14:40:00,
2013-01-13 09:42:00,58.1,58.1,29.87,SSW,205,0.0,5.0,100,0.03,,BKN055,0.65,VWS V14.00,2013-01-13 14:42:00,
2013-01-13 09:50:00,58.3,58.3,29.88,WSW,243,4.0,5.0,100,0.02,,BKN055,0.65,VWS V14.00,2013-01-13 14:50:00,
2013-01-13 09:52:00,58.3,58.3,29.88,WSW,243,4.0,5.0,100,0.02,,BKN055,0.65,VWS V14.00,2013-01-13 14:52:00,
2013-01-13 10:00:00,58.4,58.4,29.87,SW,219,0.0,4.0,100,0.02,,BKN055,0.66,VWS V14.00,2013-01-13 15:00:00,
2013-01-13 10:02:00,58.4,58.4,29.87,SW,219,0.0,4.0,100,0.02,,BKN055,0.66,VWS V14.00,2013-01-13 15:02:00,
2013-01-13 10:10:00,58.4,58.1,29.88,WSW,237,0.0,3.0,99,0.03,,BKN055,0.67,VWS V14.00,2013-01-13 15:10:00,
2013-01-13 10:12:00,58.4,58.1,29.88,WSW,237,0.0,3.0,99,0.03,,BKN055,0.67,VWS V14.00,2013-01-13 15:12:00,
2013-01-13 10:20:00,58.3,58.0,29.87,SW,221,0.0,1.0,99,0.03,,BKN055,0.67,VWS V14.00,2013-01-13 15:20:00,
2013-01-13 10:22:00,58.3,58.0,29.87,SW,221,0.0,1.0,99,0.03,,BKN055,0.67,VWS V14.00,2013-01-13 15:22:00,
2013-01-13 10:30:00,57.8,57.5,29.87,SW,221,0.0,0.0,99,0.03,,BKN055,0.68,VWS V14.00,2013-01-13 15:30:00,
2013-01-13 10:32:00,57.8,57.5,29.87,SW,221,0.0,0.0,99,0.03,,BKN055,0.68,VWS V14.00,2013-01-13 15:32:00,
2013-01-13 10:40:00,58.0,57.7,29.88,WSW,254,0.0,3.0,99,0.03,,BKN055,0.68,VWS V14.00,2013-01-13 15:40:00,
2013-01-13 10:42:00,58.0,57.7,29.88,WSW,254,0.0,3.0,99,0.03,,BKN055,0.68,VWS V14.00,2013-01-13 15:42:00,
2013-01-13 10:50:00,58.1,57.8,29.88,SW,221,0.0,1.0,99,0.04,,BKN055,0.69,VWS V14.00,2013-01-13 15:50:00,
2013-01-13 10:52:00,58.1,57.8,29.88,SW,221,0.0,1.0,99,0.04,,BKN055,0.69,VWS V14.00,2013-01-13 15:52:00,
2013-01-13 11:00:00,58.0,57.7,29.88,West,273,3.0,3.0,99,0.04,,BKN055,0.69,VWS V14.00,2013-01-13 16:00:00,
2013-01-13 11:02:00,58.0,57.7,29.88,West,273,3.0,3.0,99,0.04,,BKN055,0.69,VWS V14.00,2013-01-13 16:02:00,
2013-01-13 11:10:00,58.2,57.9,29.88,SSW,203,0.0,4.0,99,0.04,,BKN055,0.70,VWS V14.00,2013-01-13 16:10:00,
2013-01-13 11:12:00,58.2,57.9,29.88,SSW,203,0.0,4.0,99,0.04,,BKN055,0.70,VWS V14.00,2013-01-13 16:12:00,
2013-01-13 11:20:00,57.8,57.5,29.87,SSW,203,0.0,0.0,99,0.04,,BKN055,0.71,VWS V14.00,2013-01-13 16:20:00,
2013-01-13 11:22:00,57.8,57.5,29.87,SSW,203,0.0,0.0,99,0.04,,BKN055,0.71,VWS V14.00,2013-01-13 16:22:00,
2013-01-13 11:30:00,57.5,57.2,29.86,SW,233,0.0,2.0,99,0.04,,BKN055,0.71,VWS V14.00,2013-01-13 16:30:00,
2013-01-13 11:32:00,57.5,57.2,29.86,SW,233,0.0,2.0,99,0.04,,BKN055,0.71,VWS V14.00,2013-01-13 16:32:00,
2013-01-13 11:40:00,57.3,57.0,29.85,SW,215,0.0,3.0,99,0.04,,BKN055,0.72,VWS V14.00,2013-01-13 16:40:00,
2013-01-13 11:42:00,57.3,57.0,29.85,SW,215,0.0,3.0,99,0.04,,BKN055,0.72,VWS V14.00,2013-01-13 16:42:00,
2013-01-13 11:50:00,57.4,57.1,29.83,SSE,147,1.0,3.0,99,0.04,,BKN055,0.72,VWS V14.00,2013-01-13 16:50:00,
2013-01-13 11:52:00,57.4,57.1,29.83,SSE,147,1.0,3.0,99,0.04,,BKN055,0.72,VWS V14.00,2013-01-13 16:52:00,
2013-01-13 12:00:00,57.7,57.4,29.84,SW,228,0.0,4.0,99,0.04,,BKN055,0.73,VWS V14.00,2013-01-13 17:00:00,
2013-01-13 12:02:00,57.7,57.4,29.84,SW,228,0.0,4.0,99,0.04,,BKN055,0.73,VWS V14.00,2013-01-13 17:02:00,
2013-01-13 12:10:00,57.7,57.4,29.84,SW,227,0.0,1.0,99,0.04,,BKN055,0.73,VWS V14.00,2013-01-13 17:10:00,
2013-01-13 12:12:00,57.7,57.4,29.84,SW,227,0.0,1.0,99,0.04,,BKN055,0.73,VWS V14.00,2013-01-13 17:12:00,
2013-01-13 12:20:00,57.2,56.6,29.82,SSW,205,0.0,3.0,98,0.03,,BKN055,0.73,VWS V14.00,2013-01-13 17:20:00,
2013-01-13 12:22:00,57.2,56.6,29.82,SSW,205,0.0,3.0,98,0.03,,BKN055,0.73,VWS V14.00,2013-01-13 17:22:00,
2013-01-13 12:30:00,57.4,57.1,29.84,West,265,0.0,4.0,99,0.02,,BKN055,0.73,VWS V14.00,2013-01-13 17:30:00,
2013-01-13 12:32:00,57.4,57.1,29.84,West,265,0.0,4.0,99,0.02,,BKN055,0.73,VWS V14.00,2013-01-13 17:32:00,
2013-01-13 12:40:00,57.5,56.9,29.84,West,259,0.0,3.0,98,0.02,,BKN055,0.73,VWS V14.00,2013-01-13 17:40:00,
2013-01-13 12:42:00,57.5,56.9,29.84,West,259,0.0,3.0,98,0.02,,BKN055,0.73,VWS V14.00,2013-01-13 17:42:00,
2013-01-13 12:50:00,57.2,56.6,29.84,WSW,242,0.0,0.0,98,0.01,,BKN055,0.73,VWS V14.00,2013-01-13 17:50:00,
2013-01-13 12:52:00,57.2,56.6,29.84,WSW,242,0.0,0.0,98,0.01,,BKN055,0.73,VWS V14.00,2013-01-13 17:52:00,
2013-01-13 13:00:00,57.4,57.1,29.83,SW,229,0.0,3.0,99,0.02,,BKN055,0.74,VWS V14.00,2013-01-13 18:00:00,
2013-01-13 13:02:00,57.4,57.1,29.83,SW,229,0.0,3.0,99,0.02,,BKN055,0.74,VWS V14.00,2013-01-13 18:02:00,
2013-01-13 13:10:00,57.1,56.5,29.82,SW,218,0.0,0.0,98,0.01,,BKN055,0.74,VWS V14.00,2013-01-13 18:10:00,
2013-01-13 13:12:00,57.1,56.5,29.82,SW,218,0.0,0.0,98,0.01,,BKN055,0.74,VWS V14.00,2013-01-13 18:12:00,
2013-01-13 13:20:00,57.0,56.4,29.81,SSW,195,0.0,1.0,98,0.01,,BKN055,0.74,VWS V14.00,2013-01-13 18:20:00,
2013-01-13 13:22:00,57.0,56.4,29.81,SSW,195,0.0,1.0,98,0.01,,BKN055,0.74,VWS V14.00,2013-01-13 18:22:00,
2013-01-13 13:30:00,57.4,57.1,29.81,SSW,211,2.0,5.0,99,0.02,,BKN055,0.75,VWS V14.00,2013-01-13 18:30:00,
2013-01-13 13:32:00,57.4,57.1,29.81,SSW,211,2.0,5.0,99,0.02,,BKN055,0.75,VWS V14.00,2013-01-13 18:32:00,
2013-01-13 13:40:00,57.2,56.6,29.80,SW,232,0.0,5.0,98,0.02,,BKN055,0.75,VWS V14.00,2013-01-13 18:40:00,
2013-01-13 13:42:00,57.2,56.6,29.80,SW,232,0.0,5.0,98,0.02,,BKN055,0.75,VWS V14.00,2013-01-13 18:42:00,
2013-01-13 13:50:00,56.9,56.3,29.80,SW,228,0.0,2.0,98,0.04,,BKN055,0.77,VWS V14.00,2013-01-13 18:50:00,
2013-01-13 13:52:00,56.9,56.3,29.80,SW,228,0.0,2.0,98,0.04,,BKN055,0.77,VWS V14.00,2013-01-13 18:52:00,
2013-01-13 14:00:00,56.6,56.0,29.81,SW,229,0.0,2.0,98,0.05,,BKN055,0.78,VWS V14.00,2013-01-13 19:00:00,
2013-01-13 14:02:00,56.6,56.0,29.81,SW,229,0.0,2.0,98,0.05,,BKN055,0.78,VWS V14.00,2013-01-13 19:02:00,
2013-01-13 14:10:00,56.5,55.9,29.81,SW,235,0.0,3.0,98,0.07,,BKN055,0.81,VWS V14.00,2013-01-13 19:10:00,
2013-01-13 14:12:00,56.5,55.9,29.81,SW,235,0.0,3.0,98,0.07,,BKN055,0.81,VWS V14.00,2013-01-13 19:12:00,
2013-01-13 14:20:00,56.3,56.0,29.82,South,190,0.0,1.0,99,0.08,,BKN055,0.82,VWS V14.00,2013-01-13 19:20:00,
2013-01-13 14:22:00,56.3,56.0,29.82,South,190,0.0,1.0,99,0.08,,BKN055,0.82,VWS V14.00,2013-01-13 19:22:00,
2013-01-13 14:30:00,56.3,56.0,29.82,WSW,241,4.0,5.0,99,0.10,,BKN055,0.84,VWS V14.00,2013-01-13 19:30:00,
2013-01-13 14:32:00,56.3,56.0,29.82,WSW,241,4.0,5.0,99,0.10,,BKN055,0.84,VWS V14.00,2013-01-13 19:32:00,
2013-01-13 14:40:00,56.7,56.4,29.82,WSW,238,0.0,5.0,99,0.12,,BKN055,0.87,VWS V14.00,2013-01-13 19:40:00,
2013-01-13 14:42:00,56.7,56.4,29.82,WSW,238,0.0,5.0,99,0.12,,BKN055,0.87,VWS V14.00,2013-01-13 19:42:00,
2013-01-13 14:50:00,56.8,56.5,29.82,SW,229,0.0,6.0,99,0.15,,BKN055,0.90,VWS V14.00,2013-01-13 19:50:00,
2013-01-13 14:52:00,56.8,56.5,29.82,SW,229,0.0,6.0,99,0.15,,BKN055,0.90,VWS V14.00,2013-01-13 19:52:00,
2013-01-13 15:00:00,56.9,56.6,29.81,SSW,207,0.0,5.0,99,0.15,,BKN055,0.92,VWS V14.00,2013-01-13 20:00:00,
2013-01-13 15:02:00,56.9,56.6,29.81,SSW,207,0.0,5.0,99,0.15,,BKN055,0.92,VWS V14.00,2013-01-13 20:02:00,
2013-01-13 15:10:00,57.1,56.8,29.82,WSW,237,2.0,6.0,99,0.15,,BKN055,0.93,VWS V14.00,2013-01-13 20:10:00,
2013-01-13 15:12:00,57.1,56.8,29.82,WSW,237,2.0,6.0,99,0.15,,BKN055,0.93,VWS V14.00,2013-01-13 20:12:00,
2013-01-13 15:20:00,58.3,58.3,29.82,WSW,252,0.0,3.0,100,0.14,,BKN055,0.95,VWS V14.00,2013-01-13 20:20:00,
2013-01-13 15:22:00,58.3,58.3,29.82,WSW,252,0.0,3.0,100,0.14,,BKN055,0.95,VWS V14.00,2013-01-13 20:22:00,
2013-01-13 15:30:00,58.3,58.3,29.83,WSW,252,0.0,0.0,100,0.14,,BKN055,0.96,VWS V14.00,2013-01-13 20:30:00,
2013-01-13 15:32:00,58.3,58.3,29.83,WSW,252,0.0,0.0,100,0.14,,BKN055,0.96,VWS V14.00,2013-01-13 20:32:00,
2013-01-13 15:40:00,57.4,57.1,29.83,WSW,253,0.0,2.0,99,0.13,,BKN055,0.97,VWS V14.00,2013-01-13 20:40:00,
2013-01-13 15:42:00,57.4,57.1,29.83,WSW,253,0.0,2.0,99,0.13,,BKN055,0.97,VWS V14.00,2013-01-13 20:42:00,
2013-01-13 15:50:00,57.2,56.9,29.83,WSW,253,0.0,0.0,99,0.12,,BKN055,0.99,VWS V14.00,2013-01-13 20:50:00,
2013-01-13 15:52:00,57.2,56.9,29.83,WSW,253,0.0,0.0,99,0.12,,BKN055,0.99,VWS V14.00,2013-01-13 20:52:00,
2013-01-13 16:00:00,57.8,57.8,29.84,WSW,253,0.0,0.0,100,0.11,,BKN055,1.01,VWS V14.00,2013-01-13 21:00:00,
2013-01-13 16:02:00,57.8,57.8,29.84,WSW,253,0.0,0.0,100,0.11,,BKN055,1.01,VWS V14.00,2013-01-13 21:02:00,
2013-01-13 16:10:00,58.6,58.6,29.85,West,272,10.0,10.0,100,0.11,,BKN055,1.03,VWS V14.00,2013-01-13 21:10:00,
2013-01-13 16:12:00,58.6,58.6,29.85,West,272,10.0,10.0,100,0.11,,BKN055,1.03,VWS V14.00,2013-01-13 21:12:00,
2013-01-13 16:20:00,54.4,53.6,29.84,WNW,303,7.0,20.0,97,0.18,,BKN055,1.11,VWS V14.00,2013-01-13 21:20:00,
2013-01-13 16:22:00,54.4,53.6,29.84,WNW,303,7.0,20.0,97,0.18,,BKN055,1.11,VWS V14.00,2013-01-13 21:22:00,
2013-01-13 16:30:00,52.6,51.8,29.82,NNW,327,4.0,7.0,97,0.18,,BKN055,1.13,VWS V14.00,2013-01-13 21:30:00,
2013-01-13 16:32:00,52.6,51.8,29.82,NNW,327,4.0,7.0,97,0.18,,BKN055,1.13,VWS V14.00,2013-01-13 21:32:00,
2013-01-13 16:40:00,51.6,50.8,29.83,NW,307,6.0,11.0,97,0.18,,BKN055,1.14,VWS V14.00,2013-01-13 21:40:00,
2013-01-13 16:42:00,51.6,50.8,29.83,NW,307,6.0,11.0,97,0.18,,BKN055,1.14,VWS V14.00,2013-01-13 21:42:00,
2013-01-13 16:50:00,50.0,49.2,29.84,WNW,299,8.0,13.0,97,0.18,,BKN055,1.15,VWS V14.00,2013-01-13 21:50:00,
2013-01-13 16:52:00,50.0,49.2,29.84,WNW,299,8.0,13.0,97,0.18,,BKN055,1.15,VWS V14.00,2013-01-13 21:52:00,
2013-01-13 17:00:00,48.5,47.4,29.84,NNW,340,4.0,13.0,96,0.19,,BKN055,1.18,VWS V14.00,2013-01-13 22:00:00,
2013-01-13 17:02:00,48.5,47.4,29.84,NNW,340,4.0,13.0,96,0.19,,BKN055,1.18,VWS V14.00,2013-01-13 22:02:00,
2013-01-13 17:10:00,47.4,46.3,29.87,NW,308,12.0,18.0,96,0.18,,BKN055,1.19,VWS V14.00,2013-01-13 22:10:00,
2013-01-13 17:12:00,47.4,46.3,29.87,NW,308,12.0,18.0,96,0.18,,BKN055,1.19,VWS V14.00,2013-01-13 22:12:00,
2013-01-13 17:20:00,46.1,45.0,29.90,WNW,286,11.0,23.0,96,0.19,,BKN055,1.22,VWS V14.00,2013-01-13 22:20:00,
2013-01-13 17:22:00,46.1,45.0,29.90,WNW,286,11.0,23.0,96,0.19,,BKN055,1.22,VWS V14.00,2013-01-13 22:22:00,
2013-01-13 17:30:00,45.0,43.9,29.90,West,279,7.0,16.0,96,0.14,,BKN055,1.25,VWS V14.00,2013-01-13 22:30:00,
2013-01-13 17:32:00,45.0,43.9,29.90,West,279,7.0,16.0,96,0.14,,BKN055,1.25,VWS V14.00,2013-01-13 22:32:00,
2013-01-13 17:40:00,43.8,42.7,29.90,West,272,4.0,15.0,96,0.15,,BKN055,1.28,VWS V14.00,2013-01-13 22:40:00,
2013-01-13 17:42:00,43.8,42.7,29.90,West,272,4.0,15.0,96,0.15,,BKN055,1.28,VWS V14.00,2013-01-13 22:42:00,
2013-01-13 17:50:00,42.7,41.4,29.91,NW,304,7.0,16.0,95,0.16,,BKN055,1.30,VWS V14.00,2013-01-13 22:50:00,
2013-01-13 17:52:00,42.7,41.4,29.91,NW,304,7.0,16.0,95,0.16,,BKN055,1.30,VWS V14.00,2013-01-13 22:52:00,
2013-01-13 18:00:00,41.2,39.6,29.92,WNW,290,7.0,19.0,94,0.17,,BKN055,1.32,VWS V14.00,2013-01-13 23:00:00,
2013-01-13 18:02:00,41.2,39.6,29.92,WNW,290,7.0,19.0,94,0.17,,BKN055,1.32,VWS V14.00,2013-01-13 23:02:00,
2013-01-13 18:10:00,40.6,39.3,29.92,WNW,288,4.0,17.0,95,0.16,,BKN055,1.34,VWS V14.00,2013-01-13 23:10:00,
2013-01-13 18:12:00,40.6,39.3,29.92,WNW,288,4.0,17.0,95,0.16,,BKN055,1.34,VWS V14.00,2013-01-13 23:12:00,
2013-01-13 18:20:00,40.4,39.1,29.94,NW,311,2.0,11.0,95,0.16,,BKN055,1.35,VWS V14.00,2013-01-13 23:20:00,
2013-01-13 18:22:00,40.4,39.1,29.94,NW,311,2.0,11.0,95,0.16,,BKN055,1.35,VWS V14.00,2013-01-13 23:22:00,
2013-01-13 18:30:00,40.2,39.2,29.93,NW,306,4.0,10.0,96,0.13,,BKN055,1.35,VWS V14.00,2013-01-13 23:30:00,
2013-01-13 18:32:00,40.2,39.2,29.93,NW,306,4.0,10.0,96,0.13,,BKN055,1.35,VWS V14.00,2013-01-13 23:32:00,
2013-01-13 18:40:00,40.1,39.0,29.95,WNW,300,4.0,12.0,96,0.11,,BKN055,1.36,VWS V14.00,2013-01-13 23:40:00,
2013-01-13 18:42:00,40.1,39.0,29.95,WNW,300,4.0,12.0,96,0.11,,BKN055,1.36,VWS V14.00,2013-01-13 23:42:00,
2013-01-13 18:50:00,39.8,38.8,29.96,NW,309,5.0,11.0,96,0.09,,BKN055,1.37,VWS V14.00,2013-01-13 23:50:00,
2013-01-13 18:52:00,39.8,38.8,29.96,NW,309,5.0,11.0,96,0.09,,BKN055,1.37,VWS V14.00,2013-01-13 23:52:00,
2013-01-13 19:00:00,39.5,38.5,29.98,West,276,7.0,14.0,96,0.08,,BKN055,1.38,VWS V14.00,2013-01-14 00:00:00,
2013-01-13 19:02:00,39.5,38.5,29.98,West,276,7.0,14.0,96,0.08,,BKN055,1.38,VWS V14.00,2013-01-14 00:02:00,
2013-01-13 19:10:00,39.0,38.0,29.98,West,267,7.0,12.0,96,0.08,,BKN055,1.40,VWS V14.00,2013-01-14 00:10:00,
2013-01-13 19:12:00,39.0,38.0,29.98,West,267,7.0,12.0,96,0.08,,BKN055,1.40,VWS V14.00,2013-01-14 00:12:00,
2013-01-13 19:20:00,38.7,37.7,30.00,West,267,7.0,13.0,96,0.08,,BKN055,1.42,VWS V14.00,2013-01-14 00:20:00,
2013-01-13 19:22:00,38.7,37.7,30.00,West,267,7.0,13.0,96,0.08,,BKN055,1.42,VWS V14.00,2013-01-14 00:22:00,
2013-01-13 19:30:00,38.3,37.3,30.00,WNW,296,3.0,13.0,96,0.09,,BKN055,1.44,VWS V14.00,2013-01-14 00:30:00,
2013-01-13 19:32:00,38.3,37.3,30.00,WNW,296,3.0,13.0,96,0.09,,BKN055,1.44,VWS V14.00,2013-01-14 00:32:00,
2013-01-13 19:40:00,37.7,36.4,30.01,WNW,284,8.0,21.0,95,0.10,,BKN055,1.45,VWS V14.00,2013-01-14 00:40:00,
2013-01-13 19:42:00,37.7,36.4,30.01,WNW,284,8.0,21.0,95,0.10,,BKN055,1.45,VWS V14.00,2013-01-14 00:42:00,
2013-01-13 19:50:00,37.0,35.7,30.00,WNW,283,8.0,12.0,95,0.09,,BKN055,1.45,VWS V14.00,2013-01-14 00:50:00,
2013-01-13 19:52:00,37.0,35.7,30.00,WNW,283,8.0,12.0,95,0.09,,BKN055,1.45,VWS V14.00,2013-01-14 00:52:00,
2013-01-13 20:00:00,36.5,35.2,30.03,WNW,289,7.0,14.0,95,0.08,,BKN055,1.45,VWS V14.00,2013-01-14 01:00:00,
2013-01-13 20:02:00,36.5,35.2,30.03,WNW,289,7.0,14.0,95,0.08,,BKN055,1.45,VWS V14.00,2013-01-14 01:02:00,
2013-01-13 20:10:00,36.2,34.9,30.03,WNW,292,11.0,15.0,95,0.07,,BKN055,1.45,VWS V14.00,2013-01-14 01:10:00,
2013-01-13 20:12:00,36.2,34.9,30.03,WNW,292,11.0,15.0,95,0.07,,BKN055,1.45,VWS V14.00,2013-01-14 01:12:00,
2013-01-13 20:20:00,36.1,34.8,30.03,NNW,327,1.0,15.0,95,0.05,,BKN055,1.45,VWS V14.00,2013-01-14 01:20:00,
2013-01-13 20:22:00,36.1,34.8,30.03,NNW,327,1.0,15.0,95,0.05,,BKN055,1.45,VWS V14.00,2013-01-14 01:22:00,
2013-01-13 20:30:00,36.1,34.8,30.03,West,277,1.0,12.0,95,0.03,,BKN055,1.45,VWS V14.00,2013-01-14 01:30:00,
2013-01-13 20:32:00,36.1,34.8,30.03,West,277,1.0,12.0,95,0.03,,BKN055,1.45,VWS V14.00,2013-01-14 01:32:00,
2013-01-13 20:40:00,36.1,34.8,30.03,NNW,333,8.0,11.0,95,0.01,,BKN055,1.45,VWS V14.00,2013-01-14 01:40:00,
2013-01-13 20:42:00,36.1,34.8,30.03,NNW,333,8.0,11.0,95,0.01,,BKN055,1.45,VWS V14.00,2013-01-14 01:42:00,
2013-01-13 20:50:00,36.2,34.9,30.04,NW,314,0.0,8.0,95,0.00,,BKN055,1.45,VWS V14.00,2013-01-14 01:50:00,
2013-01-13 20:52:00,36.2,34.9,30.04,NW,314,0.0,8.0,95,0.00,,BKN055,1.45,VWS V14.00,2013-01-14 01:52:00,
2013-01-13 21:00:00,36.2,34.9,30.04,West,277,4.0,7.0,95,0.01,,BKN055,1.46,VWS V14.00,2013-01-14 02:00:00,
2013-01-13 21:02:00,36.2,34.9,30.04,West,277,4.0,7.0,95,0.01,,BKN055,1.46,VWS V14.00,2013-01-14 02:02:00,
2013-01-13 21:10:00,36.3,35.0,30.06,West,281,0.0,10.0,95,0.01,,BKN055,1.46,VWS V14.00,2013-01-14 02:10:00,
2013-01-13 21:12:00,36.3,35.0,30.06,West,281,0.0,10.0,95,0.01,,BKN055,1.46,VWS V14.00,2013-01-14 02:12:00,
2013-01-13 21:20:00,36.3,35.0,30.06,WNW,286,10.0,12.0,95,0.01,,BKN055,1.46,VWS V14.00,2013-01-14 02:20:00,
2013-01-13 21:22:00,36.3,35.0,30.06,WNW,286,10.0,12.0,95,0.01,,BKN055,1.46,VWS V14.00,2013-01-14 02:22:00,
2013-01-13 21:30:00,36.2,34.6,30.07,WNW,303,6.0,11.0,94,0.01,,BKN055,1.46,VWS V14.00,2013-01-14 02:30:00,
2013-01-13 21:32:00,36.2,34.6,30.07,WNW,303,6.0,11.0,94,0.01,,BKN055,1.46,VWS V14.00,2013-01-14 02:32:00,
2013-01-13 21:40:00,36.2,34.6,30.08,West,263,1.0,13.0,94,0.01,,BKN055,1.46,VWS V14.00,2013-01-14 02:40:00,
2013-01-13 21:42:00,36.2,34.6,30.08,West,263,1.0,13.0,94,0.01,,BKN055,1.46,VWS V14.00,2013-01-14 02:42:00,
2013-01-13 21:50:00,36.2,34.6,30.09,SSW,195,6.0,9.0,94,0.01,,BKN055,1.46,VWS V14.00,2013-01-14 02:50:00,
2013-01-13 21:52:00,36.2,34.6,30.09,SSW,195,6.0,9.0,94,0.01,,BKN055,1.46,VWS V14.00,2013-01-14 02:52:00,
2013-01-13 22:00:00,36.2,34.6,30.09,WSW,252,12.0,12.0,94,0.01,,BKN055,1.46,VWS V14.00,2013-01-14 03:00:00,
2013-01-13 22:02:00,36.2,34.6,30.09,WSW,252,12.0,12.0,94,0.01,,BKN055,1.46,VWS V14.00,2013-01-14 03:02:00,
2013-01-13 22:10:00,36.2,34.6,30.10,West,275,3.0,13.0,94,0.00,,BKN055,1.46,VWS V14.00,2013-01-14 03:10:00,
2013-01-13 22:12:00,36.2,34.6,30.10,West,275,3.0,13.0,94,0.00,,BKN055,1.46,VWS V14.00,2013-01-14 03:12:00,
2013-01-13 22:20:00,36.1,34.5,30.10,WSW,246,4.0,9.0,94,0.00,,BKN055,1.46,VWS V14.00,2013-01-14 03:20:00,
2013-01-13 22:22:00,36.1,34.5,30.10,WSW,246,4.0,9.0,94,0.00,,BKN055,1.46,VWS V14.00,2013-01-14 03:22:00,
2013-01-13 22:30:00,36.1,34.3,30.11,West,269,4.0,6.0,93,0.00,,BKN055,1.46,VWS V14.00,2013-01-14 03:30:00,
2013-01-13 22:32:00,36.1,34.3,30.11,West,269,4.0,6.0,93,0.00,,BKN055,1.46,VWS V14.00,2013-01-14 03:32:00,
2013-01-13 22:40:00,36.1,34.3,30.12,NNW,334,0.0,4.0,93,0.00,,BKN055,1.46,VWS V14.00,2013-01-14 03:40:00,
2013-01-13 22:42:00,36.1,34.3,30.12,NNW,334,0.0,4.0,93,0.00,,BKN055,1.46,VWS V14.00,2013-01-14 03:42:00,
2013-01-13 22:50:00,36.0,34.2,30.13,NW,309,0.0,7.0,93,0.00,,BKN055,1.46,VWS V14.00,2013-01-14 03:50:00,
2013-01-13 22:52:00,36.0,34.2,30.13,NW,309,0.0,7.0,93,0.00,,BKN055,1.46,VWS V14.00,2013-01-14 03:52:00,
2013-01-13 23:00:00,36.0,33.9,30.14,WSW,256,5.0,9.0,92,0.00,,BKN055,1.46,VWS V14.00,2013-01-14 04:00:00,
2013-01-13 23:02:00,36.0,33.9,30.14,WSW,256,5.0,9.0,92,0.00,,BKN055,1.46,VWS V14.00,2013-01-14 04:02:00,
2013-01-13 23:10:00,35.8,33.7,30.14,North,355,1.0,12.0,92,0.00,,BKN055,1.46,VWS V14.00,2013-01-14 04:10:00,
2013-01-13 23:12:00,35.8,33.7,30.14,North,355,1.0,12.0,92,0.00,,BKN055,1.46,VWS V14.00,2013-01-14 04:12:00,
2013-01-13 23:20:00,35.6,33.5,30.15,NNW,331,6.0,10.0,92,0.00,,BKN055,1.46,VWS V14.00,2013-01-14 04:20:00,
2013-01-13 23:22:00,35.6,33.5,30.15,NNW,331,6.0,10.0,92,0.00,,BKN055,1.46,VWS V14.00,2013-01-14 04:22:00,
2013-01-13 23:30:00,35.2,33.1,30.16,North,10,3.0,12.0,92,0.00,,BKN055,1.46,VWS V14.00,2013-01-14 04:30:00,
2013-01-13 23:32:00,35.2,33.1,30.16,North,10,3.0,12.0,92,0.00,,BKN055,1.46,VWS V14.00,2013-01-14 04:32:00,
2013-01-13 23:40:00,34.7,32.6,30.16,WNW,294,2.0,13.0,92,0.00,,BKN055,1.46,VWS V14.00,2013-01-14 04:40:00,
2013-01-13 23:42:00,34.7,32.6,30.16,WNW,294,2.0,13.0,92,0.00,,BKN055,1.46,VWS V14.00,2013-01-14 04:42:00,
2013-01-13 23:50:00,34.4,31.5,30.16,NNW,334,6.0,10.0,89,0.00,,BKN055,1.46,VWS V14.00,2013-01-14 04:50:00,
2013-01-13 23:52:00,34.4,31.5,30.16,NNW,334,6.0,10.0,89,0.00,,BKN055,1.46,VWS V14.00,2013-01-14 04:52:00,